Time,TemperatureF,DewpointF,PressureIn,WindDirection,WindDirectionDegrees,WindSpeedMPH,WindSpeedGustMPH,Humidity,HourlyPrecipIn,Conditions,Clouds,dailyrainin,SoftwareType,DateUTC
2013-11-02 00:02:00,47.3,16.6,30.07,WSW,245,0.0,0.0,29,0.00,,,0.00,Wunderground v.1.15,2013-11-02 07:02:00,
2013-11-02 00:08:00,48.6,16.9,30.07,ENE,78,0.0,0.0,28,0.00,,,0.00,Wunderground v.1.15,2013-11-02 07:08:00,
2013-11-02 00:13:00,50.3,17.5,30.07,ENE,70,2.0,2.0,27,0.00,,,0.00,Wunderground v.1.15,2013-11-02 07:13:00,
2013-11-02 00:18:00,50.4,16.8,30.07,ENE,76,1.0,2.0,26,0.00,,,0.00,Wunderground v.1.15,2013-11-02 07:18:00,
2013-11-02 00:24:00,50.5,16.8,30.07,ENE,72,3.0,3.0,26,0.00,,,0.00,Wunderground v.1.15,2013-11-02 07:24:00,
2013-11-02 00:29:00,50.4,16.8,30.07,ENE,65,3.0,3.0,26,0.00,,,0.00,Wunderground v.1.15,2013-11-02 07:29:00,
2013-11-02 00:35:00,50.5,16.8,30.07,East,84,2.0,3.0,26,0.00,,,0.00,Wunderground v.1.15,2013-11-02 07:35:00,
2013-11-02 00:40:00,51.3,17.5,30.07,ENE,70,2.0,3.0,26,0.00,,,0.00,Wunderground v.1.15,2013-11-02 07:40:00,
2013-11-02 00:45:00,51.7,17.9,30.07,East,98,1.0,3.0,26,0.00,,,0.00,Wunderground v.1.15,2013-11-02 07:45:00,
2013-11-02 00:51:00,51.3,17.5,30.07,East,83,2.0,2.0,26,0.00,,,0.00,Wunderground v.1.15,2013-11-02 07:51:00,
2013-11-02 00:56:00,52.0,18.1,30.07,East,100,4.0,4.0,26,0.00,,,0.00,Wunderground v.1.15,2013-11-02 07:56:00,
2013-11-02 01:01:00,52.9,18.0,30.07,East,91,1.0,3.0,25,0.00,,,0.00,Wunderground v.1.15,2013-11-02 08:01:00,
2013-11-02 01:06:00,53.2,18.2,30.07,ENE,65,3.0,3.0,25,0.00,,,0.00,Wunderground v.1.15,2013-11-02 08:06:00,
2013-11-02 01:12:00,53.3,17.4,30.07,SE,131,2.0,3.0,24,0.00,,,0.00,Wunderground v.1.15,2013-11-02 08:12:00,
2013-11-02 01:17:00,53.9,17.9,30.07,ESE,108,3.0,4.0,24,0.00,,,0.00,Wunderground v.1.15,2013-11-02 08:17:00,
2013-11-02 01:22:00,54.7,17.6,30.07,ESE,111,2.0,7.0,23,0.00,,,0.00,Wunderground v.1.15,2013-11-02 08:22:00,
2013-11-02 01:28:00,54.9,17.7,30.07,ENE,72,4.0,7.0,23,0.00,,,0.00,Wunderground v.1.15,2013-11-02 08:28:00,
2013-11-02 01:33:00,54.6,17.5,30.07,East,96,6.0,6.0,23,0.00,,,0.00,Wunderground v.1.15,2013-11-02 08:33:00,
2013-11-02 01:38:00,54.2,18.1,30.07,SE,126,3.0,6.0,24,0.00,,,0.00,Wunderground v.1.15,2013-11-02 08:38:00,
2013-11-02 01:44:00,54.2,18.1,30.07,East,99,4.0,7.0,24,0.00,,,0.00,Wunderground v.1.15,2013-11-02 08:44:00,
2013-11-02 01:49:00,53.9,17.9,30.06,ESE,121,2.0,7.0,24,0.00,,,0.00,Wunderground v.1.15,2013-11-02 08:49:00,
2013-11-02 01:54:00,53.2,17.3,30.06,ESE,104,2.0,4.0,24,0.00,,,0.00,Wunderground v.1.15,2013-11-02 08:54:00,
2013-11-02 02:00:00,52.9,18.0,30.06,ESE,104,1.0,3.0,25,0.00,,,0.00,Wunderground v.1.15,2013-11-02 09:00:00,
2013-11-02 02:05:00,53.3,18.3,30.06,ESE,118,4.0,6.0,25,0.00,,,0.00,Wunderground v.1.15,2013-11-02 09:05:00,
2013-11-02 02:10:00,53.8,18.7,30.06,ESE,117,3.0,4.0,25,0.00,,,0.00,Wunderground v.1.15,2013-11-02 09:10:00,
2013-11-02 02:15:00,54.9,18.7,30.06,ESE,110,3.0,8.0,24,0.00,,,0.00,Wunderground v.1.15,2013-11-02 09:15:00,
2013-11-02 02:20:00,55.7,18.4,30.06,ESE,120,3.0,4.0,23,0.00,,,0.00,Wunderground v.1.15,2013-11-02 09:20:00,
2013-11-02 02:25:00,55.8,18.5,30.06,ESE,102,3.0,6.0,23,0.00,,,0.00,Wunderground v.1.15,2013-11-02 09:25:00,
2013-11-02 02:30:00,55.9,18.6,30.05,ESE,110,1.0,3.0,23,0.00,,,0.00,Wunderground v.1.15,2013-11-02 09:30:00,
2013-11-02 02:35:00,56.2,18.8,30.05,ESE,117,4.0,7.0,23,0.00,,,0.00,Wunderground v.1.15,2013-11-02 09:35:00,
2013-11-02 02:40:00,57.0,18.5,30.05,ESE,107,6.0,6.0,22,0.00,,,0.00,Wunderground v.1.15,2013-11-02 09:40:00,
2013-11-02 02:45:00,57.1,18.6,30.05,ESE,104,4.0,8.0,22,0.00,,,0.00,Wunderground v.1.15,2013-11-02 09:45:00,
2013-11-02 02:50:00,56.7,18.2,30.05,ESE,108,3.0,4.0,22,0.00,,,0.00,Wunderground v.1.15,2013-11-02 09:50:00,
2013-11-02 02:55:00,56.2,18.8,30.05,ESE,111,1.0,4.0,23,0.00,,,0.00,Wunderground v.1.15,2013-11-02 09:55:00,
2013-11-02 03:00:00,55.4,18.2,30.04,East,94,3.0,3.0,23,0.00,,,0.00,Wunderground v.1.15,2013-11-02 10:00:00,
2013-11-02 03:05:00,55.7,18.4,30.04,East,86,3.0,7.0,23,0.00,,,0.00,Wunderground v.1.15,2013-11-02 10:05:00,
2013-11-02 03:10:00,55.9,18.6,30.04,East,99,5.0,5.0,23,0.00,,,0.00,Wunderground v.1.15,2013-11-02 10:10:00,
2013-11-02 03:15:00,55.6,18.3,30.04,ESE,108,2.0,5.0,23,0.00,,,0.00,Wunderground v.1.15,2013-11-02 10:15:00,
2013-11-02 03:20:00,54.5,17.4,30.04,East,98,1.0,2.0,23,0.00,,,0.00,Wunderground v.1.15,2013-11-02 10:20:00,
2013-11-02 03:25:00,54.1,18.1,30.04,ESE,105,1.0,5.0,24,0.00,,,0.00,Wunderground v.1.15,2013-11-02 10:25:00,
2013-11-02 03:30:00,53.7,17.7,30.04,ENE,74,2.0,3.0,24,0.00,,,0.00,Wunderground v.1.15,2013-11-02 10:30:00,
2013-11-02 03:35:00,53.4,17.5,30.04,ENE,75,3.0,5.0,24,0.00,,,0.00,Wunderground v.1.15,2013-11-02 10:35:00,
2013-11-02 03:40:00,53.6,17.6,30.04,ENE,65,6.0,6.0,24,0.00,,,0.00,Wunderground v.1.15,2013-11-02 10:40:00,
2013-11-02 03:45:00,53.9,16.9,30.04,East,95,4.0,6.0,23,0.00,,,0.00,Wunderground v.1.15,2013-11-02 10:45:00,
2013-11-02 03:50:00,54.0,17.0,30.04,ESE,121,1.0,4.0,23,0.00,,,0.00,Wunderground v.1.15,2013-11-02 10:50:00,
2013-11-02 03:55:00,53.0,17.1,30.04,East,89,2.0,4.0,24,0.00,,,0.00,Wunderground v.1.15,2013-11-02 10:55:00,
2013-11-02 04:00:00,52.5,16.7,30.03,ENE,74,2.0,3.0,24,0.00,,,0.00,Wunderground v.1.15,2013-11-02 11:00:00,
2013-11-02 04:05:00,52.5,16.7,30.03,East,82,2.0,4.0,24,0.00,,,0.00,Wunderground v.1.15,2013-11-02 11:05:00,
2013-11-02 04:10:00,53.2,16.3,30.03,East,83,5.0,6.0,23,0.00,,,0.00,Wunderground v.1.15,2013-11-02 11:10:00,
2013-11-02 04:15:00,53.7,16.7,30.03,ENE,65,5.0,6.0,23,0.00,,,0.00,Wunderground v.1.15,2013-11-02 11:15:00,
2013-11-02 04:20:00,54.4,16.3,30.03,East,98,2.0,6.0,22,0.00,,,0.00,Wunderground v.1.15,2013-11-02 11:20:00,
2013-11-02 04:25:00,55.1,16.9,30.03,ESE,116,5.0,7.0,22,0.00,,,0.00,Wunderground v.1.15,2013-11-02 11:25:00,
2013-11-02 04:30:00,56.2,16.7,30.03,East,99,1.0,4.0,21,0.00,,,0.00,Wunderground v.1.15,2013-11-02 11:30:00,
2013-11-02 04:35:00,56.8,17.2,30.03,SE,124,6.0,8.0,21,0.00,,,0.00,Wunderground v.1.15,2013-11-02 11:35:00,
2013-11-02 04:40:00,57.9,17.0,30.03,ESE,104,3.0,8.0,20,0.00,,,0.00,Wunderground v.1.15,2013-11-02 11:40:00,
2013-11-02 04:45:00,58.6,17.6,30.03,ESE,116,8.0,11.0,20,0.00,,,0.00,Wunderground v.1.15,2013-11-02 11:45:00,
2013-11-02 04:50:00,58.9,17.8,30.03,SE,125,5.0,6.0,20,0.00,,,0.00,Wunderground v.1.15,2013-11-02 11:50:00,
2013-11-02 04:55:00,59.0,17.9,30.03,ESE,103,4.0,9.0,20,0.00,,,0.00,Wunderground v.1.15,2013-11-02 11:55:00,
2013-11-02 05:00:00,58.8,17.8,30.03,ESE,104,4.0,12.0,20,0.00,,,0.00,Wunderground v.1.15,2013-11-02 12:00:00,
2013-11-02 05:05:00,58.6,17.6,30.03,ESE,104,7.0,12.0,20,0.00,,,0.00,Wunderground v.1.15,2013-11-02 12:05:00,
2013-11-02 05:10:00,58.4,17.4,30.04,ESE,117,3.0,6.0,20,0.00,,,0.00,Wunderground v.1.15,2013-11-02 12:10:00,
2013-11-02 05:15:00,57.8,16.9,30.04,SW,219,4.0,6.0,20,0.00,,,0.00,Wunderground v.1.15,2013-11-02 12:15:00,
2013-11-02 05:21:00,54.3,16.2,30.04,WSW,238,0.0,3.0,22,0.00,,,0.00,Wunderground v.1.15,2013-11-02 12:21:00,
2013-11-02 05:26:00,52.1,16.4,30.04,South,186,0.0,3.0,24,0.00,,,0.00,Wunderground v.1.15,2013-11-02 12:26:00,
2013-11-02 05:31:00,51.0,16.4,30.04,SSW,213,0.0,1.0,25,0.00,,,0.00,Wunderground v.1.15,2013-11-02 12:31:00,
2013-11-02 05:36:00,50.6,16.0,30.04,SW,214,0.0,1.0,25,0.00,,,0.00,Wunderground v.1.15,2013-11-02 12:36:00,
2013-11-02 05:41:00,49.9,16.3,30.04,ESE,121,0.0,0.0,26,0.00,,,0.00,Wunderground v.1.15,2013-11-02 12:41:00,
2013-11-02 05:46:00,48.9,16.3,30.03,ENE,76,0.0,0.0,27,0.00,,,0.00,Wunderground v.1.15,2013-11-02 12:46:00,
2013-11-02 05:51:00,47.6,16.1,30.03,ENE,77,0.0,0.0,28,0.00,,,0.00,Wunderground v.1.15,2013-11-02 12:51:00,
2013-11-02 05:56:00,46.1,15.6,30.03,NNW,338,0.0,0.0,29,0.00,,,0.00,Wunderground v.1.15,2013-11-02 12:56:00,
2013-11-02 06:01:00,45.1,15.5,30.04,NNW,338,0.0,0.0,30,0.00,,,0.00,Wunderground v.1.15,2013-11-02 13:01:00,
2013-11-02 06:06:00,43.6,15.6,30.04,NE,40,0.0,0.0,32,0.00,,,0.00,Wunderground v.1.15,2013-11-02 13:06:00,
2013-11-02 06:11:00,43.5,15.5,30.04,North,9,1.0,1.0,32,0.00,,,0.00,Wunderground v.1.15,2013-11-02 13:11:00,
2013-11-02 06:16:00,43.6,16.3,30.04,NE,40,1.0,2.0,33,0.00,,,0.00,Wunderground v.1.15,2013-11-02 13:16:00,
2013-11-02 06:21:00,43.5,16.3,30.04,NNE,25,3.0,4.0,33,0.00,,,0.00,Wunderground v.1.15,2013-11-02 13:21:00,
2013-11-02 06:26:00,43.9,15.9,30.03,NNE,18,1.0,4.0,32,0.00,,,0.00,Wunderground v.1.15,2013-11-02 13:26:00,
2013-11-02 06:31:00,44.0,16.0,30.03,NNE,27,1.0,2.0,32,0.00,,,0.00,Wunderground v.1.15,2013-11-02 13:31:00,
2013-11-02 06:36:00,44.2,16.2,30.03,NNE,20,2.0,3.0,32,0.00,,,0.00,Wunderground v.1.15,2013-11-02 13:36:00,
2013-11-02 06:41:00,44.0,16.0,30.03,North,6,0.0,1.0,32,0.00,,,0.00,Wunderground v.1.15,2013-11-02 13:41:00,
2013-11-02 06:46:00,43.3,16.1,30.04,SE,136,0.0,1.0,33,0.00,,,0.00,Wunderground v.1.15,2013-11-02 13:46:00,
2013-11-02 06:51:00,42.9,15.7,30.04,SE,136,0.0,0.0,33,0.00,,,0.00,Wunderground v.1.15,2013-11-02 13:51:00,
2013-11-02 06:56:00,43.2,16.0,30.04,SSE,160,0.0,0.0,33,0.00,,,0.00,Wunderground v.1.15,2013-11-02 13:56:00,
2013-11-02 07:01:00,44.3,16.3,30.04,ESE,117,5.0,6.0,32,0.00,,,0.00,Wunderground v.1.15,2013-11-02 14:01:00,
2013-11-02 07:06:00,47.6,17.6,30.04,WNW,301,3.0,8.0,30,0.00,,,0.00,Wunderground v.1.15,2013-11-02 14:06:00,
2013-11-02 07:11:00,49.7,17.0,30.04,NNE,13,0.0,3.0,27,0.00,,,0.00,Wunderground v.1.15,2013-11-02 14:11:00,
2013-11-02 07:16:00,50.5,16.8,30.04,West,268,1.0,4.0,26,0.00,,,0.00,Wunderground v.1.15,2013-11-02 14:16:00,
2013-11-02 07:21:00,51.4,17.6,30.04,ESE,111,2.0,3.0,26,0.00,,,0.00,Wunderground v.1.15,2013-11-02 14:21:00,
2013-11-02 07:26:00,52.2,17.4,30.04,NNW,347,0.0,3.0,25,0.00,,,0.00,Wunderground v.1.15,2013-11-02 14:26:00,
2013-11-02 07:31:00,53.0,18.1,30.04,ENE,75,0.0,1.0,25,0.00,,,0.00,Wunderground v.1.15,2013-11-02 14:31:00,
2013-11-02 07:36:00,53.6,17.6,30.04,NE,42,0.0,3.0,24,0.00,,,0.00,Wunderground v.1.15,2013-11-02 14:36:00,
2013-11-02 07:41:00,53.8,17.8,30.04,NW,313,4.0,4.0,24,0.00,,,0.00,Wunderground v.1.15,2013-11-02 14:41:00,
2013-11-02 07:46:00,54.2,18.1,30.04,North,3,1.0,5.0,24,0.00,,,0.00,Wunderground v.1.15,2013-11-02 14:46:00,
2013-11-02 07:51:00,55.2,18.0,30.05,West,274,0.0,2.0,23,0.00,,,0.00,Wunderground v.1.15,2013-11-02 14:51:00,
2013-11-02 07:56:00,55.9,18.6,30.05,WNW,291,0.0,2.0,23,0.00,,,0.00,Wunderground v.1.15,2013-11-02 14:56:00,
2013-11-02 08:01:00,56.5,18.1,30.05,WSW,257,3.0,5.0,22,0.00,,,0.00,Wunderground v.1.15,2013-11-02 15:01:00,
2013-11-02 08:06:00,57.0,18.5,30.05,WNW,283,2.0,5.0,22,0.00,,,0.00,Wunderground v.1.15,2013-11-02 15:06:00,
2013-11-02 08:11:00,57.6,17.9,30.05,WNW,287,2.0,5.0,21,0.00,,,0.00,Wunderground v.1.15,2013-11-02 15:11:00,
2013-11-02 08:16:00,58.0,18.2,30.05,West,267,3.0,5.0,21,0.00,,,0.00,Wunderground v.1.15,2013-11-02 15:16:00,
2013-11-02 08:21:00,58.3,18.5,30.05,WNW,291,4.0,4.0,21,0.00,,,0.00,Wunderground v.1.15,2013-11-02 15:21:00,
2013-11-02 08:26:00,58.8,17.8,30.05,West,278,1.0,5.0,20,0.00,,,0.00,Wunderground v.1.15,2013-11-02 15:26:00,
2013-11-02 08:31:00,59.0,17.9,30.05,West,280,1.0,6.0,20,0.00,,,0.00,Wunderground v.1.15,2013-11-02 15:31:00,
2013-11-02 08:36:00,59.5,18.3,30.05,WNW,297,6.0,6.0,20,0.00,,,0.00,Wunderground v.1.15,2013-11-02 15:36:00,
2013-11-02 08:41:00,59.4,18.3,30.05,West,271,4.0,7.0,20,0.00,,,0.00,Wunderground v.1.15,2013-11-02 15:41:00,
2013-11-02 08:46:00,59.9,17.5,30.05,WNW,298,4.0,7.0,19,0.00,,,0.00,Wunderground v.1.15,2013-11-02 15:46:00,
2013-11-02 08:51:00,60.8,18.2,30.05,NW,314,4.0,5.0,19,0.00,,,0.00,Wunderground v.1.15,2013-11-02 15:51:00,
2013-11-02 08:56:00,61.3,17.4,30.05,WNW,293,3.0,6.0,18,0.00,,,0.00,Wunderground v.1.15,2013-11-02 15:56:00,
2013-11-02 09:01:00,61.8,17.8,30.05,WNW,296,4.0,4.0,18,0.00,,,0.00,Wunderground v.1.15,2013-11-02 16:01:00,
2013-11-02 09:06:00,62.4,18.3,30.05,NNW,342,5.0,5.0,18,0.00,,,0.00,Wunderground v.1.15,2013-11-02 16:06:00,
2013-11-02 09:11:00,63.0,17.4,30.05,NW,316,0.0,4.0,17,0.00,,,0.00,Wunderground v.1.15,2013-11-02 16:11:00,
2013-11-02 09:16:00,64.6,17.3,30.04,ESE,123,3.0,6.0,16,0.00,,,0.00,Wunderground v.1.15,2013-11-02 16:16:00,
2013-11-02 09:21:00,66.0,17.0,30.04,North,349,7.0,12.0,15,0.00,,,0.00,Wunderground v.1.15,2013-11-02 16:21:00,
2013-11-02 09:26:00,65.9,16.9,30.04,WNW,287,1.0,12.0,15,0.00,,,0.00,Wunderground v.1.15,2013-11-02 16:26:00,
2013-11-02 09:31:00,66.4,17.3,30.04,SW,230,1.0,4.0,15,0.00,,,0.00,Wunderground v.1.15,2013-11-02 16:31:00,
2013-11-02 09:36:00,67.7,15.0,30.04,SSE,148,8.0,15.0,13,0.00,,,0.00,Wunderground v.1.15,2013-11-02 16:36:00,
2013-11-02 09:41:00,68.4,13.7,30.04,ESE,118,8.0,14.0,12,0.00,,,0.00,Wunderground v.1.15,2013-11-02 16:41:00,
2013-11-02 09:46:00,68.3,13.7,30.04,East,97,7.0,16.0,12,0.00,,,0.00,Wunderground v.1.15,2013-11-02 16:46:00,
2013-11-02 09:51:00,68.5,13.8,30.04,SE,132,8.0,13.0,12,0.00,,,0.00,Wunderground v.1.15,2013-11-02 16:51:00,
2013-11-02 09:56:00,68.5,13.8,30.04,SE,143,10.0,15.0,12,0.00,,,0.00,Wunderground v.1.15,2013-11-02 16:56:00,
2013-11-02 10:01:00,68.8,15.9,30.03,SE,124,10.0,13.0,13,0.00,,,0.00,Wunderground v.1.15,2013-11-02 17:01:00,
2013-11-02 10:06:00,68.7,14.0,30.03,SSE,156,5.0,13.0,12,0.00,,,0.00,Wunderground v.1.15,2013-11-02 17:06:00,
2013-11-02 10:11:00,69.0,16.0,30.03,East,95,3.0,12.0,13,0.00,,,0.00,Wunderground v.1.15,2013-11-02 17:11:00,
2013-11-02 10:16:00,69.1,14.3,30.03,East,97,6.0,15.0,12,0.00,,,0.00,Wunderground v.1.15,2013-11-02 17:16:00,
2013-11-02 10:21:00,69.3,14.4,30.03,ESE,110,6.0,10.0,12,0.00,,,0.00,Wunderground v.1.15,2013-11-02 17:21:00,
2013-11-02 10:26:00,69.9,14.9,30.02,East,100,4.0,11.0,12,0.00,,,0.00,Wunderground v.1.15,2013-11-02 17:26:00,
2013-11-02 10:31:00,70.2,15.1,30.02,ESE,107,7.0,7.0,12,0.00,,,0.00,Wunderground v.1.15,2013-11-02 17:31:00,
2013-11-02 10:36:00,70.5,15.4,30.02,East,80,7.0,11.0,12,0.00,,,0.00,Wunderground v.1.15,2013-11-02 17:36:00,
2013-11-02 10:41:00,70.5,15.4,30.02,ESE,117,5.0,9.0,12,0.00,,,0.00,Wunderground v.1.15,2013-11-02 17:41:00,
2013-11-02 10:46:00,70.5,15.4,30.02,SE,132,5.0,10.0,12,0.00,,,0.00,Wunderground v.1.15,2013-11-02 17:46:00,
2013-11-02 10:51:00,71.1,15.9,30.01,ESE,117,8.0,10.0,12,0.00,,,0.00,Wunderground v.1.15,2013-11-02 17:51:00,
2013-11-02 10:56:00,71.6,14.2,30.01,ESE,106,8.0,13.0,11,0.00,,,0.00,Wunderground v.1.15,2013-11-02 17:56:00,
2013-11-02 11:01:00,71.8,16.4,30.01,ESE,111,7.0,8.0,12,0.00,,,0.00,Wunderground v.1.15,2013-11-02 18:01:00,
2013-11-02 11:06:00,72.1,14.6,30.00,SSE,160,4.0,11.0,11,0.00,,,0.00,Wunderground v.1.15,2013-11-02 18:06:00,
2013-11-02 11:11:00,72.3,14.8,30.00,SE,143,7.0,13.0,11,0.00,,,0.00,Wunderground v.1.15,2013-11-02 18:11:00,
2013-11-02 11:16:00,72.8,15.2,30.00,ESE,116,4.0,13.0,11,0.00,,,0.00,Wunderground v.1.15,2013-11-02 18:16:00,
2013-11-02 11:21:00,72.8,13.0,30.00,ESE,105,9.0,13.0,10,0.00,,,0.00,Wunderground v.1.15,2013-11-02 18:21:00,
2013-11-02 11:26:00,72.6,15.0,30.00,ESE,113,6.0,13.0,11,0.00,,,0.00,Wunderground v.1.15,2013-11-02 18:26:00,
2013-11-02 11:31:00,72.7,15.1,30.00,ESE,115,12.0,12.0,11,0.00,,,0.00,Wunderground v.1.15,2013-11-02 18:31:00,
2013-11-02 11:36:00,72.5,14.9,30.00,SSE,149,11.0,13.0,11,0.00,,,0.00,Wunderground v.1.15,2013-11-02 18:36:00,
2013-11-02 11:41:00,72.9,15.3,29.99,SE,139,4.0,14.0,11,0.00,,,0.00,Wunderground v.1.15,2013-11-02 18:41:00,
2013-11-02 11:46:00,73.3,13.4,29.99,SSE,149,8.0,14.0,10,0.00,,,0.00,Wunderground v.1.15,2013-11-02 18:46:00,
2013-11-02 11:51:00,73.2,15.5,29.99,ENE,70,7.0,15.0,11,0.00,,,0.00,Wunderground v.1.15,2013-11-02 18:51:00,
2013-11-02 11:56:00,73.2,13.3,29.99,East,93,8.0,15.0,10,0.00,,,0.00,Wunderground v.1.15,2013-11-02 18:56:00,
2013-11-02 12:01:00,73.2,15.5,29.98,SE,141,13.0,14.0,11,0.00,,,0.00,Wunderground v.1.15,2013-11-02 19:01:00,
2013-11-02 12:06:00,73.3,15.6,29.97,ESE,107,11.0,16.0,11,0.00,,,0.00,Wunderground v.1.15,2013-11-02 19:06:00,
2013-11-02 12:11:00,73.4,15.6,29.97,East,87,8.0,16.0,11,0.00,,,0.00,Wunderground v.1.15,2013-11-02 19:11:00,
2013-11-02 12:16:00,73.6,15.8,29.96,SE,135,5.0,16.0,11,0.00,,,0.00,Wunderground v.1.15,2013-11-02 19:16:00,
2013-11-02 12:21:00,73.5,15.7,29.96,SE,132,12.0,15.0,11,0.00,,,0.00,Wunderground v.1.15,2013-11-02 19:21:00,
2013-11-02 12:26:00,73.8,15.9,29.96,East,92,11.0,15.0,11,0.00,,,0.00,Wunderground v.1.15,2013-11-02 19:26:00,
2013-11-02 12:31:00,73.7,15.9,29.95,SSE,152,6.0,14.0,11,0.00,,,0.00,Wunderground v.1.15,2013-11-02 19:31:00,
2013-11-02 12:36:00,73.9,16.0,29.95,East,94,17.0,17.0,11,0.00,,,0.00,Wunderground v.1.15,2013-11-02 19:36:00,
2013-11-02 12:41:00,74.0,16.1,29.94,ESE,111,8.0,11.0,11,0.00,,,0.00,Wunderground v.1.15,2013-11-02 19:41:00,
2013-11-02 12:47:00,74.3,16.3,29.94,SE,138,8.0,13.0,11,0.00,,,0.00,Wunderground v.1.15,2013-11-02 19:47:00,
2013-11-02 12:52:00,74.4,16.4,29.94,ESE,108,12.0,12.0,11,0.00,,,0.00,Wunderground v.1.15,2013-11-02 19:52:00,
2013-11-02 12:57:00,74.7,16.6,29.93,ESE,122,9.0,14.0,11,0.00,,,0.00,Wunderground v.1.15,2013-11-02 19:57:00,
2013-11-02 13:02:00,74.8,16.7,29.93,SE,139,6.0,11.0,11,0.00,,,0.00,Wunderground v.1.15,2013-11-02 20:02:00,
2013-11-02 13:07:00,75.5,15.1,29.93,SSE,154,8.0,16.0,10,0.00,,,0.00,Wunderground v.1.15,2013-11-02 20:07:00,
2013-11-02 13:12:00,75.0,14.7,29.93,ESE,113,5.0,12.0,10,0.00,,,0.00,Wunderground v.1.15,2013-11-02 20:12:00,
2013-11-02 13:17:00,75.1,14.8,29.92,ESE,116,5.0,12.0,10,0.00,,,0.00,Wunderground v.1.15,2013-11-02 20:17:00,
2013-11-02 13:22:00,75.5,15.1,29.92,SSE,160,8.0,14.0,10,0.00,,,0.00,Wunderground v.1.15,2013-11-02 20:22:00,
2013-11-02 13:27:00,75.3,14.9,29.92,SSE,159,4.0,14.0,10,0.00,,,0.00,Wunderground v.1.15,2013-11-02 20:27:00,
2013-11-02 13:32:00,75.3,14.9,29.92,ESE,105,5.0,10.0,10,0.00,,,0.00,Wunderground v.1.15,2013-11-02 20:32:00,
2013-11-02 13:37:00,74.8,14.5,29.92,ESE,102,5.0,10.0,10,0.00,,,0.00,Wunderground v.1.15,2013-11-02 20:37:00,
2013-11-02 13:42:00,74.9,16.8,29.91,SE,127,2.0,9.0,11,0.00,,,0.00,Wunderground v.1.15,2013-11-02 20:42:00,
2013-11-02 13:47:00,75.0,14.7,29.91,SSE,163,4.0,11.0,10,0.00,,,0.00,Wunderground v.1.15,2013-11-02 20:47:00,
2013-11-02 13:52:00,75.2,14.8,29.91,ESE,115,6.0,11.0,10,0.00,,,0.00,Wunderground v.1.15,2013-11-02 20:52:00,
2013-11-02 13:57:00,75.6,15.1,29.91,ESE,114,4.0,11.0,10,0.00,,,0.00,Wunderground v.1.15,2013-11-02 20:57:00,
2013-11-02 14:02:00,75.6,15.1,29.90,SSE,155,6.0,8.0,10,0.00,,,0.00,Wunderground v.1.15,2013-11-02 21:02:00,
2013-11-02 14:07:00,75.4,15.0,29.90,ESE,121,5.0,11.0,10,0.00,,,0.00,Wunderground v.1.15,2013-11-02 21:07:00,
2013-11-02 14:12:00,75.1,17.0,29.90,ESE,115,4.0,10.0,11,0.00,,,0.00,Wunderground v.1.15,2013-11-02 21:12:00,
2013-11-02 14:17:00,75.4,15.0,29.90,ESE,111,7.0,10.0,10,0.00,,,0.00,Wunderground v.1.15,2013-11-02 21:17:00,
2013-11-02 14:22:00,75.4,15.0,29.89,SSW,195,2.0,8.0,10,0.00,,,0.00,Wunderground v.1.15,2013-11-02 21:22:00,
2013-11-02 14:27:00,75.6,15.1,29.89,South,172,2.0,8.0,10,0.00,,,0.00,Wunderground v.1.15,2013-11-02 21:27:00,
2013-11-02 14:32:00,75.7,15.2,29.89,SE,141,2.0,6.0,10,0.00,,,0.00,Wunderground v.1.15,2013-11-02 21:32:00,
2013-11-02 14:37:00,75.9,15.4,29.89,East,84,6.0,8.0,10,0.00,,,0.00,Wunderground v.1.15,2013-11-02 21:37:00,
2013-11-02 14:42:00,75.7,15.2,29.88,SE,134,5.0,9.0,10,0.00,,,0.00,Wunderground v.1.15,2013-11-02 21:42:00,
2013-11-02 14:47:00,75.3,14.9,29.88,SE,129,3.0,9.0,10,0.00,,,0.00,Wunderground v.1.15,2013-11-02 21:47:00,
2013-11-02 14:52:00,75.1,14.8,29.88,East,88,3.0,9.0,10,0.00,,,0.00,Wunderground v.1.15,2013-11-02 21:52:00,
2013-11-02 14:57:00,75.6,15.1,29.88,SE,132,5.0,9.0,10,0.00,,,0.00,Wunderground v.1.15,2013-11-02 21:57:00,
2013-11-02 15:02:00,75.6,15.1,29.88,ESE,107,4.0,9.0,10,0.00,,,0.00,Wunderground v.1.15,2013-11-02 22:02:00,
2013-11-02 15:07:00,75.2,14.8,29.88,East,86,2.0,9.0,10,0.00,,,0.00,Wunderground v.1.15,2013-11-02 22:07:00,
2013-11-02 15:12:00,75.6,15.1,29.88,SSE,152,7.0,11.0,10,0.00,,,0.00,Wunderground v.1.15,2013-11-02 22:12:00,
2013-11-02 15:17:00,75.5,15.1,29.87,East,87,6.0,11.0,10,0.00,,,0.00,Wunderground v.1.15,2013-11-02 22:17:00,
2013-11-02 15:21:00,75.5,15.1,29.87,SE,127,4.0,5.0,10,0.00,,,0.00,Wunderground v.1.15,2013-11-02 22:21:00,
2013-11-02 15:27:00,76.2,15.6,29.87,SE,127,5.0,9.0,10,0.00,,,0.00,Wunderground v.1.15,2013-11-02 22:27:00,
2013-11-02 15:31:00,76.4,15.7,29.87,ESE,103,5.0,10.0,10,0.00,,,0.00,Wunderground v.1.15,2013-11-02 22:31:00,
2013-11-02 15:37:00,76.6,13.5,29.87,South,188,2.0,10.0,9,0.00,,,0.00,Wunderground v.1.15,2013-11-02 22:37:00,
2013-11-02 15:42:00,77.1,16.3,29.87,East,96,3.0,6.0,10,0.00,,,0.00,Wunderground v.1.15,2013-11-02 22:42:00,
2013-11-02 15:47:00,77.2,13.9,29.87,ESE,108,7.0,9.0,9,0.00,,,0.00,Wunderground v.1.15,2013-11-02 22:47:00,
2013-11-02 15:51:00,76.6,15.9,29.87,SE,131,3.0,7.0,10,0.00,,,0.00,Wunderground v.1.15,2013-11-02 22:51:00,
2013-11-02 15:56:00,76.4,15.7,29.87,South,184,6.0,8.0,10,0.00,,,0.00,Wunderground v.1.15,2013-11-02 22:56:00,
2013-11-02 16:01:00,76.6,13.5,29.86,SSW,196,3.0,6.0,9,0.00,,,0.00,Wunderground v.1.15,2013-11-02 23:01:00,
2013-11-02 16:06:00,76.2,15.6,29.87,ESE,108,4.0,8.0,10,0.00,,,0.00,Wunderground v.1.15,2013-11-02 23:06:00,
2013-11-02 16:11:00,75.6,15.1,29.86,SSE,158,4.0,6.0,10,0.00,,,0.00,Wunderground v.1.15,2013-11-02 23:11:00,
2013-11-02 16:16:00,75.8,15.3,29.86,SE,146,4.0,8.0,10,0.00,,,0.00,Wunderground v.1.15,2013-11-02 23:16:00,
2013-11-02 16:21:00,76.1,15.5,29.86,SSE,148,6.0,8.0,10,0.00,,,0.00,Wunderground v.1.15,2013-11-02 23:21:00,
2013-11-02 16:26:00,76.3,15.7,29.86,SE,129,5.0,8.0,10,0.00,,,0.00,Wunderground v.1.15,2013-11-02 23:26:00,
2013-11-02 16:31:00,76.1,15.5,29.85,ESE,121,1.0,4.0,10,0.00,,,0.00,Wunderground v.1.15,2013-11-02 23:31:00,
2013-11-02 16:36:00,76.0,15.4,29.85,SE,129,3.0,7.0,10,0.00,,,0.00,Wunderground v.1.15,2013-11-02 23:36:00,
2013-11-02 16:41:00,75.6,15.1,29.85,East,101,2.0,6.0,10,0.00,,,0.00,Wunderground v.1.15,2013-11-02 23:41:00,
2013-11-02 16:46:00,75.5,15.1,29.85,SE,141,3.0,7.0,10,0.00,,,0.00,Wunderground v.1.15,2013-11-02 23:46:00,
2013-11-02 16:51:00,75.1,14.8,29.85,ESE,105,3.0,5.0,10,0.00,,,0.00,Wunderground v.1.15,2013-11-02 23:51:00,
2013-11-02 16:56:00,74.9,14.6,29.84,East,95,1.0,5.0,10,0.00,,,0.00,Wunderground v.1.15,2013-11-02 23:56:00,
2013-11-02 17:01:00,74.5,14.3,29.84,ENE,72,1.0,4.0,10,0.00,,,0.00,Wunderground v.1.15,2013-11-03 00:01:00,
2013-11-02 17:06:00,74.1,14.0,29.84,ESE,120,2.0,5.0,10,0.00,,,0.00,Wunderground v.1.15,2013-11-03 00:06:00,
2013-11-02 17:11:00,73.8,13.8,29.84,SE,135,2.0,3.0,10,0.00,,,0.00,Wunderground v.1.15,2013-11-03 00:11:00,
2013-11-02 17:16:00,73.2,13.3,29.84,SE,129,2.0,5.0,10,0.00,,,0.00,Wunderground v.1.15,2013-11-03 00:16:00,
2013-11-02 17:21:00,72.3,14.8,29.84,ESE,105,2.0,4.0,11,0.00,,,0.00,Wunderground v.1.15,2013-11-03 00:21:00,
2013-11-02 17:26:00,71.4,14.1,29.84,East,98,2.0,4.0,11,0.00,,,0.00,Wunderground v.1.15,2013-11-03 00:26:00,
2013-11-02 17:31:00,70.4,13.3,29.84,ESE,106,1.0,2.0,11,0.00,,,0.00,Wunderground v.1.15,2013-11-03 00:31:00,
2013-11-02 17:36:00,69.2,14.4,29.84,East,101,0.0,2.0,12,0.00,,,0.00,Wunderground v.1.15,2013-11-03 00:36:00,
2013-11-02 17:41:00,67.8,13.3,29.84,East,86,0.0,1.0,12,0.00,,,0.00,Wunderground v.1.15,2013-11-03 00:41:00,
2013-11-02 17:46:00,66.4,14.0,29.84,East,96,0.0,2.0,13,0.00,,,0.00,Wunderground v.1.15,2013-11-03 00:46:00,
2013-11-02 17:51:00,65.4,13.2,29.84,East,95,0.0,1.0,13,0.00,,,0.00,Wunderground v.1.15,2013-11-03 00:51:00,
2013-11-02 17:56:00,64.9,14.5,29.84,SE,128,1.0,3.0,14,0.00,,,0.00,Wunderground v.1.15,2013-11-03 00:56:00,
2013-11-02 18:01:00,65.1,14.7,29.84,SE,139,2.0,3.0,14,0.00,,,0.00,Wunderground v.1.15,2013-11-03 01:01:00,
2013-11-02 18:06:00,65.3,14.8,29.84,East,96,1.0,4.0,14,0.00,,,0.00,Wunderground v.1.15,2013-11-03 01:06:00,
2013-11-02 18:11:00,65.2,14.7,29.84,SE,124,2.0,3.0,14,0.00,,,0.00,Wunderground v.1.15,2013-11-03 01:11:00,
2013-11-02 18:16:00,65.2,14.7,29.84,East,86,2.0,4.0,14,0.00,,,0.00,Wunderground v.1.15,2013-11-03 01:16:00,
2013-11-02 18:21:00,65.0,14.6,29.84,ESE,110,0.0,3.0,14,0.00,,,0.00,Wunderground v.1.15,2013-11-03 01:21:00,
2013-11-02 18:26:00,64.6,14.3,29.84,East,87,2.0,3.0,14,0.00,,,0.00,Wunderground v.1.15,2013-11-03 01:26:00,
2013-11-02 18:31:00,64.3,14.0,29.84,East,81,1.0,5.0,14,0.00,,,0.00,Wunderground v.1.15,2013-11-03 01:31:00,
2013-11-02 18:36:00,64.1,13.9,29.85,East,85,0.0,5.0,14,0.00,,,0.00,Wunderground v.1.15,2013-11-03 01:36:00,
2013-11-02 18:41:00,64.1,13.9,29.85,East,101,2.0,4.0,14,0.00,,,0.00,Wunderground v.1.15,2013-11-03 01:41:00,
2013-11-02 18:46:00,64.3,14.0,29.85,East,101,2.0,4.0,14,0.00,,,0.00,Wunderground v.1.15,2013-11-03 01:46:00,
2013-11-02 18:51:00,64.3,14.0,29.85,ESE,117,2.0,2.0,14,0.00,,,0.00,Wunderground v.1.15,2013-11-03 01:51:00,
2013-11-02 18:56:00,64.1,13.9,29.85,ESE,111,4.0,5.0,14,0.00,,,0.00,Wunderground v.1.15,2013-11-03 01:56:00,
2013-11-02 19:01:00,64.1,15.4,29.85,East,94,3.0,6.0,15,0.00,,,0.00,Wunderground v.1.15,2013-11-03 02:01:00,
2013-11-02 19:06:00,64.5,15.8,29.85,ENE,73,3.0,7.0,15,0.00,,,0.00,Wunderground v.1.15,2013-11-03 02:06:00,
2013-11-02 19:11:00,64.7,15.9,29.85,ESE,105,3.0,4.0,15,0.00,,,0.00,Wunderground v.1.15,2013-11-03 02:11:00,
2013-11-02 19:16:00,64.4,15.7,29.85,ESE,122,1.0,4.0,15,0.00,,,0.00,Wunderground v.1.15,2013-11-03 02:16:00,
2013-11-02 19:21:00,64.1,15.4,29.85,East,91,0.0,2.0,15,0.00,,,0.00,Wunderground v.1.15,2013-11-03 02:21:00,
2013-11-02 19:26:00,63.7,15.1,29.85,ENE,72,1.0,2.0,15,0.00,,,0.00,Wunderground v.1.15,2013-11-03 02:26:00,
2013-11-02 19:31:00,63.5,15.0,29.86,East,101,0.0,2.0,15,0.00,,,0.00,Wunderground v.1.15,2013-11-03 02:31:00,
2013-11-02 19:36:00,62.8,14.4,29.86,ENE,70,3.0,3.0,15,0.00,,,0.00,Wunderground v.1.15,2013-11-03 02:36:00,
2013-11-02 19:41:00,63.2,14.7,29.85,ESE,103,2.0,4.0,15,0.00,,,0.00,Wunderground v.1.15,2013-11-03 02:41:00,
2013-11-02 19:46:00,63.5,15.0,29.85,East,82,3.0,4.0,15,0.00,,,0.00,Wunderground v.1.15,2013-11-03 02:46:00,
2013-11-02 19:51:00,64.2,15.5,29.85,East,97,3.0,4.0,15,0.00,,,0.00,Wunderground v.1.15,2013-11-03 02:51:00,
2013-11-02 19:56:00,64.5,15.8,29.84,East,100,1.0,6.0,15,0.00,,,0.00,Wunderground v.1.15,2013-11-03 02:56:00,
2013-11-02 20:01:00,64.7,15.9,29.85,East,85,3.0,4.0,15,0.00,,,0.00,Wunderground v.1.15,2013-11-03 03:01:00,
2013-11-02 20:06:00,64.6,15.8,29.84,ESE,108,2.0,4.0,15,0.00,,,0.00,Wunderground v.1.15,2013-11-03 03:06:00,
2013-11-02 20:11:00,64.5,15.8,29.84,East,87,3.0,3.0,15,0.00,,,0.00,Wunderground v.1.15,2013-11-03 03:11:00,
2013-11-02 20:16:00,64.5,15.8,29.84,SE,134,1.0,5.0,15,0.00,,,0.00,Wunderground v.1.15,2013-11-03 03:16:00,
2013-11-02 20:21:00,64.5,15.8,29.84,ESE,107,1.0,5.0,15,0.00,,,0.00,Wunderground v.1.15,2013-11-03 03:21:00,
2013-11-02 20:26:00,64.5,15.8,29.84,ESE,105,2.0,6.0,15,0.00,,,0.00,Wunderground v.1.15,2013-11-03 03:26:00,
2013-11-02 20:31:00,64.6,15.8,29.84,ENE,66,3.0,5.0,15,0.00,,,0.00,Wunderground v.1.15,2013-11-03 03:31:00,
2013-11-02 20:36:00,64.8,16.0,29.84,ESE,121,4.0,6.0,15,0.00,,,0.00,Wunderground v.1.15,2013-11-03 03:36:00,
2013-11-02 20:41:00,65.2,14.7,29.85,SW,228,4.0,8.0,14,0.00,,,0.00,Wunderground v.1.15,2013-11-03 03:41:00,
2013-11-02 20:46:00,65.0,14.6,29.86,South,173,4.0,11.0,14,0.00,,,0.00,Wunderground v.1.15,2013-11-03 03:46:00,
2013-11-02 20:51:00,64.6,14.3,29.85,SSE,168,2.0,6.0,14,0.00,,,0.00,Wunderground v.1.15,2013-11-03 03:51:00,
2013-11-02 20:56:00,63.7,15.1,29.85,SE,124,4.0,6.0,15,0.00,,,0.00,Wunderground v.1.15,2013-11-03 03:56:00,
2013-11-02 21:01:00,63.3,14.8,29.85,East,96,2.0,5.0,15,0.00,,,0.00,Wunderground v.1.15,2013-11-03 04:01:00,
2013-11-02 21:02:00,63.2,14.7,29.84,East,94,2.0,5.0,15,0.00,,,0.00,Wunderground v.1.15,2013-11-03 04:02:00,
2013-11-02 21:07:00,62.8,14.4,29.84,ESE,113,2.0,5.0,15,0.00,,,0.00,Wunderground v.1.15,2013-11-03 04:07:00,
2013-11-02 21:12:00,63.2,14.7,29.84,ESE,115,3.0,7.0,15,0.00,,,0.00,Wunderground v.1.15,2013-11-03 04:12:00,
2013-11-02 21:17:00,63.5,15.0,29.84,ESE,102,1.0,7.0,15,0.00,,,0.00,Wunderground v.1.15,2013-11-03 04:17:00,
2013-11-02 21:22:00,63.6,15.0,29.84,ESE,115,2.0,5.0,15,0.00,,,0.00,Wunderground v.1.15,2013-11-03 04:22:00,
2013-11-02 21:27:00,63.7,15.1,29.84,ESE,105,4.0,6.0,15,0.00,,,0.00,Wunderground v.1.15,2013-11-03 04:27:00,
2013-11-02 21:32:00,63.6,15.0,29.84,SE,136,3.0,5.0,15,0.00,,,0.00,Wunderground v.1.15,2013-11-03 04:32:00,
2013-11-02 21:37:00,63.5,15.0,29.84,ESE,108,2.0,5.0,15,0.00,,,0.00,Wunderground v.1.15,2013-11-03 04:37:00,
2013-11-02 21:42:00,63.5,15.0,29.84,ESE,115,2.0,5.0,15,0.00,,,0.00,Wunderground v.1.15,2013-11-03 04:42:00,
2013-11-02 21:47:00,63.5,15.0,29.83,East,81,1.0,5.0,15,0.00,,,0.00,Wunderground v.1.15,2013-11-03 04:47:00,
2013-11-02 21:52:00,63.4,16.4,29.84,ESE,108,1.0,3.0,16,0.00,,,0.00,Wunderground v.1.15,2013-11-03 04:52:00,
2013-11-02 21:57:00,63.0,16.0,29.84,ENE,71,2.0,3.0,16,0.00,,,0.00,Wunderground v.1.15,2013-11-03 04:57:00,
2013-11-02 22:02:00,62.6,15.7,29.84,ESE,113,3.0,3.0,16,0.00,,,0.00,Wunderground v.1.15,2013-11-03 05:02:00,
2013-11-02 22:07:00,62.6,15.7,29.84,ESE,109,1.0,5.0,16,0.00,,,0.00,Wunderground v.1.15,2013-11-03 05:07:00,
2013-11-02 22:12:00,62.6,15.7,29.84,ESE,118,0.0,2.0,16,0.00,,,0.00,Wunderground v.1.15,2013-11-03 05:12:00,
2013-11-02 22:17:00,62.8,15.9,29.84,ESE,121,0.0,2.0,16,0.00,,,0.00,Wunderground v.1.15,2013-11-03 05:17:00,
2013-11-02 22:22:00,63.3,16.3,29.84,East,88,0.0,3.0,16,0.00,,,0.00,Wunderground v.1.15,2013-11-03 05:22:00,
2013-11-02 22:27:00,63.4,16.4,29.84,East,97,2.0,3.0,16,0.00,,,0.00,Wunderground v.1.15,2013-11-03 05:27:00,
2013-11-02 22:32:00,63.5,16.4,29.84,East,98,0.0,1.0,16,0.00,,,0.00,Wunderground v.1.15,2013-11-03 05:32:00,
2013-11-02 22:37:00,63.5,16.4,29.85,ESE,105,2.0,2.0,16,0.00,,,0.00,Wunderground v.1.15,2013-11-03 05:37:00,
2013-11-02 22:42:00,63.6,16.5,29.86,SE,146,2.0,3.0,16,0.00,,,0.00,Wunderground v.1.15,2013-11-03 05:42:00,
2013-11-02 22:47:00,63.3,16.3,29.87,West,266,6.0,11.0,16,0.00,,,0.00,Wunderground v.1.15,2013-11-03 05:47:00,
2013-11-02 22:52:00,62.6,17.1,29.87,WSW,238,8.0,9.0,17,0.00,,,0.00,Wunderground v.1.15,2013-11-03 05:52:00,
2013-11-02 22:57:00,63.1,20.1,29.87,WNW,288,6.0,10.0,19,0.00,,,0.00,Wunderground v.1.15,2013-11-03 05:57:00,
2013-11-02 23:02:00,62.8,18.6,29.87,WNW,284,2.0,5.0,18,0.00,,,0.00,Wunderground v.1.15,2013-11-03 06:02:00,
2013-11-02 23:07:00,62.4,19.5,29.87,WNW,298,5.0,7.0,19,0.00,,,0.00,Wunderground v.1.15,2013-11-03 06:07:00,
2013-11-02 23:12:00,61.9,19.1,29.86,NW,321,3.0,6.0,19,0.00,,,0.00,Wunderground v.1.15,2013-11-03 06:12:00,
2013-11-02 23:17:00,60.4,17.9,29.86,NNW,346,1.0,6.0,19,0.00,,,0.00,Wunderground v.1.15,2013-11-03 06:17:00,
2013-11-02 23:21:00,59.7,19.6,29.86,NNW,341,5.0,6.0,21,0.00,,,0.00,Wunderground v.1.15,2013-11-03 06:21:00,
2013-11-02 23:26:00,60.1,20.0,29.87,WNW,300,2.0,6.0,21,0.00,,,0.00,Wunderground v.1.15,2013-11-03 06:26:00,
2013-11-02 23:31:00,60.5,23.5,29.86,WNW,300,3.0,5.0,24,0.00,,,0.00,Wunderground v.1.15,2013-11-03 06:31:00,
2013-11-02 23:36:00,60.9,24.8,29.86,WNW,302,5.0,9.0,25,0.00,,,0.00,Wunderground v.1.15,2013-11-03 06:36:00,
2013-11-02 23:41:00,61.1,25.9,29.86,NW,315,3.0,5.0,26,0.00,,,0.00,Wunderground v.1.15,2013-11-03 06:41:00,
2013-11-02 23:46:00,61.3,27.9,29.85,NW,313,4.0,10.0,28,0.00,,,0.00,Wunderground v.1.15,2013-11-03 06:46:00,
2013-11-02 23:51:00,61.3,29.6,29.85,NW,304,5.0,8.0,30,0.00,,,0.00,Wunderground v.1.15,2013-11-03 06:51:00,
2013-11-02 23:56:00,61.4,31.3,29.84,WNW,294,6.0,11.0,32,0.00,,,0.00,Wunderground v.1.15,2013-11-03 06:56:00,